FW1247 Weather Reports


Display with metric or nautical units.
time (UTC)temp
F
wind
direction
speed
MPH
gust
MPH
rain 1hr
in
rain 24hr
in
rain mn
in
humidity
%
barometer
mb
20260506061557 49 19 2.0 5.0 0.00 0.00 0.00 71 1005.8
20260506044534 44 333 1.0 4.0 0.00 0.00 0.00 81 1006.2
20260506043031 43 330 2.0 3.0 0.00 0.00 0.00 81 1006.4
20260506041529 43 340 0.0 4.0 0.00 0.00 0.00 81 1006.3
20260506040026 43 329 0.0 3.0 0.00 0.00 0.00 81 1006.2
20260506034528 43 350 2.0 5.0 0.00 0.00 0.00 81 1006.2
20260506033021 43 9 1.0 4.0 0.00 0.00 0.00 82 1006.3
20260506031521 43 13 2.0 5.0 0.00 0.00 0.00 83 1006.3
20260506030033 42 333 2.0 5.0 0.00 0.00 0.00 83 1006.5
20260506024537 42 323 1.0 5.0 0.00 0.00 0.00 83 1006.6
20260506023016 42 336 1.0 5.0 0.00 0.00 0.00 82 1006.6
20260506021514 42 325 0.0 4.0 0.00 0.00 0.00 82 1006.7
20260506020014 42 325 2.0 4.0 0.00 0.00 0.00 81 1006.7
20260506014512 42 324 2.0 5.0 0.00 0.00 0.00 80 1006.6
20260506013018 42 355 2.0 5.0 0.00 0.00 0.00 79 1006.6
20260506011511 42 342 1.0 5.0 0.00 0.00 0.00 77 1006.7
20260506010014 42 331 1.0 3.0 0.00 0.00 0.00 76 1006.8
20260506004508 42 324 3.0 5.0 0.00 0.00 0.00 74 1006.6
20260506003006 42 331 0.0 3.0 0.00 0.00 0.00 72 1006.8
20260506001505 42 327 0.0 3.0 0.00 0.00 0.00 71 1006.9
20260506000004 43 327 0.0 4.0 0.00 0.00 0.00 70 1007.0
20260505234504 43 336 0.0 3.0 0.00 0.00 0.00 69 1007.1
20260505233002 44 336 0.0 2.0 0.00 0.00 0.00 69 1007.0
20260505231502 43 336 1.0 3.0 0.00 0.00 0.00 71 1007.0
20260505230107 43 350 0.0 3.0 0.00 0.00 0.00 73 1006.9
20260505224559 43 325 2.0 3.0 0.00 0.00 0.00 76 1007.0
20260505223107 43 333 1.0 5.0 0.00 0.00 0.00 81 1007.1
20260505221551 43 327 0.0 3.0 0.00 0.00 0.00 84 1007.2
20260505220048 44 327 0.0 0.0 0.00 0.00 0.00 84 1007.4
20260505214547 45 327 0.0 1.0 0.00 0.00 0.00 84 1007.4
20260505213055 45 327 0.0 0.0 0.00 0.00 0.00 84 1007.5
20260505211546 46 327 0.0 2.0 0.00 0.00 0.00 84 1007.5
20260505210046 46 327 0.0 0.0 0.00 0.00 0.00 84 1007.5
20260505204545 47 327 0.0 0.0 0.00 0.00 0.00 82 1007.5
20260505203051 48 327 0.0 0.0 0.00 0.00 0.00 82 1007.6
20260505201544 49 327 0.0 0.0 0.00 0.00 0.00 81 1007.5
20260505200044 49 327 0.0 0.0 0.00 0.00 0.00 81 1007.5
20260505194550 50 327 0.0 3.0 0.00 0.00 0.00 80 1007.6
20260505193043 51 207 0.0 2.0 0.00 0.00 0.00 80 1007.4
20260505191542 51 207 0.0 2.0 0.00 0.00 0.00 79 1007.2
20260505190041 52 207 0.0 1.0 0.00 0.00 0.00 78 1007.1
20260505184541 53 207 0.0 1.0 0.00 0.00 0.00 77 1007.0
20260505183039 53 207 1.0 2.0 0.00 0.00 0.00 76 1007.0
20260505181540 54 207 0.0 2.0 0.00 0.00 0.00 75 1007.0
20260505180039 54 207 1.0 4.0 0.00 0.00 0.00 74 1007.0
20260505174546 55 234 2.0 5.0 0.00 0.00 0.00 73 1007.0
20260505173044 56 202 0.0 2.0 0.00 0.00 0.00 69 1007.0
20260505171538 56 202 0.0 0.0 0.00 0.00 0.00 69 1007.0
20260505170039 56 202 0.0 1.0 0.00 0.00 0.00 69 1007.0
20260505164549 56 202 0.0 2.0 0.00 0.00 0.00 69 1007.1
20260505163036 56 202 0.0 3.0 0.00 0.00 0.00 68 1007.1
20260505161537 55 169 0.0 2.0 0.00 0.00 0.00 69 1007.1
20260505153047 54 161 4.0 9.0 0.00 0.00 0.00 71 1007.1
20260505151541 54 107 4.0 8.0 0.00 0.00 0.00 73 1007.2
20260505124526 58 173 3.0 10.0 0.00 0.00 0.00 68 1007.5
20260505123021 58 98 3.0 11.0 0.00 0.00 0.00 68 1007.6
20260505121518 62 123 2.0 6.0 0.00 0.00 0.00 62 1007.6
20260505120017 64 44 3.0 8.0 0.00 0.00 0.00 49 1007.6
20260505114530 62 293 3.0 9.0 0.00 0.00 0.00 58 1007.6
20260505113015 63 322 4.0 10.0 0.00 0.00 0.00 52 1007.7
20260505111512 63 344 4.0 10.0 0.00 0.00 0.00 54 1007.7
20260505101503 60 311 5.0 14.0 0.00 0.00 0.00 64 1008.0
20260505100059 58 302 6.0 11.0 0.00 0.00 0.00 68 1008.0
20260505094606 59 300 9.0 13.0 0.00 0.00 0.00 68 1008.1
20260505093057 57 299 7.0 14.0 0.00 0.00 0.00 70 1008.2
20260505091600 56 324 7.0 14.0 0.00 0.00 0.00 72 1008.1
20260505090100 58 325 9.0 15.0 0.00 0.00 0.00 70 1008.1
20260505084554 56 288 5.0 11.0 0.00 0.00 0.00 70 1008.1
20260505083054 57 286 7.0 13.0 0.00 0.00 0.00 74 1008.1
20260505081558 54 300 6.0 12.0 0.00 0.00 0.00 74 1008.1
20260505080049 54 318 9.0 14.0 0.00 0.00 0.00 75 1008.2
20260505074603 54 329 7.0 12.0 0.00 0.00 0.00 77 1008.1
20260505073040 53 319 5.0 11.0 0.00 0.00 0.00 79 1008.2
20260505071537 53 328 8.0 12.0 0.00 0.00 0.00 80 1008.2
20260505070033 52 334 5.0 10.0 0.00 0.00 0.00 81 1008.3